{"data":{"norad_id":28924,"epoch":"2026-05-25T02:51:35.398080Z","epoch_age_seconds":75194,"freshness":"FRESH","line1":"1 28924U 05052A   26145.11915970  .00000008  00000+0  00000+0 0  9994","line2":"2 28924   4.1638  76.8052 0006382 342.8483  39.9287  1.00272741 52108","mean_motion":1.00272741,"eccentricity":0.0006382,"inclination_deg":4.1638,"raan_deg":76.8052,"arg_perigee_deg":342.8483,"mean_anomaly_deg":39.9287,"bstar":0,"rev_number":5210,"period_min":1436.083212286,"perigee_km":35759.417600916,"apogee_km":35813.236322717,"semimajor_km":42164.463961816,"source":"CELESTRAK","updated_at":"2026-05-25T13:38:13.850994Z"}}